Regional Weather Roundup
Issued by NWS Sioux Falls, SD

Home | Current Version | Previous Version | Graphics & Text | Print | Product List | Glossary Off
Versions: 1 2 3 4 5 6 7 8 9 10 11 12 13 14 15 16 17 18 19 20 21 22 23 24 25 26 27 28 29 30 31 32 33 34 35 36 37 38 39 40 41 42 43 44 45 46 47 48 49 50

000
ASUS43 KFSD 312102
RWRFSD

WEATHER ROUNDUP FOR SE SOUTH DAKOTA/SW MINNESOTA/NW IOWA
NATIONAL WEATHER SERVICE SIOUX FALLS SD
400 PM CDT FRI JUL 31 2015

NOTE: "FAIR" INDICATES FEW OR NO CLOUDS BELOW 12,000 FEET WITH NO
SIGNIFICANT WEATHER AND OR OBSTRUCTIONS TO VISIBILITY.


SDZ038>040-050-052>070-312200-
SOUTHEAST SOUTH DAKOTA

CITY           SKY/WX    TMP DP  RH WIND       PRES   REMARKS
BROOKINGS      SUNNY     82  54  36 SW7       30.12F
CHAMBERLAIN    NOT AVBL
HURON          SUNNY     86  54  33 S6        30.08F
MADISON        FAIR      82  55  39 W5        30.11F
MITCHELL       SUNNY     87  53  31 CALM      30.09F
SIOUX FALLS    MOSUNNY   87  53  31 CALM      30.09F
WINNER         FAIR      93  57  29 NE5       30.10F
YANKTON        SUNNY     84  66  54 E7        30.06F
$$

MNZ071-072-080-081-089-090-097-098-312200-
SOUTHWEST MINNESOTA

CITY           SKY/WX    TMP DP  RH WIND       PRES   REMARKS
FAIRMONT       SUNNY     81  54  39 NW14      30.09F
JACKSON        SUNNY     82  52  34 NW9       30.11F
LUVERNE        SUNNY     82  54  36 CALM      30.11F
MARSHALL       SUNNY     81  54  39 CALM      30.10F
MONTEVIDEO     SUNNY     84  57  39 N7        30.09F
PIPESTONE      SUNNY     81  54  39 CALM      30.11F
REDWOOD FALLS  SUNNY     83  55  38 NW8       30.07F
TRACY          SUNNY     82  54  36 N3        30.10F
WINDOM         SUNNY     81  52  36 CALM      30.10F
WORTHINGTON    SUNNY     81  54  39 CALM      30.11F
$$

IAZ001>003-012>014-020>022-031-032-NEZ013-014-SDZ071-312200-
NORTHWEST IOWA

CITY           SKY/WX    TMP DP  RH WIND       PRES   REMARKS
DENISON        PTSUNNY   82  70  65 CALM      30.06F
ESTHERVILLE    SUNNY     82  55  39 N10       30.10F
SIOUX CITY     SUNNY     87  71  58 VRB6      30.06F
SPENCER        SUNNY     86  53  32 NW5       30.10F
$$

ABBREVIATIONS USED IN REMARKS
   TC - TEMPERATURE IN CELSIUS
  WCI - WIND CHILL INDEX
   HX - HEAT INDEX
  VSB - VISIBILITY




USA.gov is the U.S. government's official web portal to all federal, state and local government web resources and services.